weather.gov     
National Weather Service

Regional Weather Roundup
NWS Homepage
This page is being discontinued on March 12, 2014.
The same data is available at this site. Please update your bookmarks.
Thank you, and we apologize for the inconvenience.
Please send an email to SR-SRH.Webmaster@noaa.gov with any concerns.


Current Version
Previous Version:    01  02  03  04  05  06  07  08  09  10  11  12  13  14  15  16  17  18  19  20  21  22  23  24  25  26  
[Printable]
907
ASUS43 KDMX 220907
RWRIA

WEATHER ROUNDUP FOR IOWA
NATIONAL WEATHER SERVICE DES MOINES IA
400 AM CDT WED OCT 22 2014

NOTE: "FAIR" INDICATES FEW OR NO CLOUDS BELOW 12,000 FEET WITH NO
SIGNIFICANT WEATHER AND/OR OBSTRUCTIONS TO VISIBILITY.

* - THESE STATIONS ARE NOT NWS STATIONS...THUS NOT UNDER NWS
QUALITY CONTROL.  THEY ALSO DO NOT REPORT WEATHER SUCH
AS PRECIPITATION OR FOG.

IAZ001>003-012>014-020>022-031>034-043>046-221000-
   NORTHWEST IOWA

CITY           SKY/WX    TMP DP  RH WIND       PRES   REMARKS
CARROLL *      CLOUDY    45  43  93 SE6       30.14F
CHEROKEE *     CLOUDY    52  45  76 S10       30.10S
DENISON *      CLOUDY    52  43  71 SE10G17   30.10S
LE MARS *      CLEAR     55  45  67 SE13G23   30.05F
ORANGE CITY *  PTCLDY    54  45  71 SE9G16    30.06S
SHELDON *      CLOUDY    52  43  71 SE21      30.06S
SIOUX CITY     CLEAR     54  45  71 SE10      30.06S
SPENCER        MOCLDY    48  40  73 SE17      30.11S
STORM LAKE *   MOCLDY    46  41  81 SE18G24   30.12S
$$

IAZ055>058-069>071-079>083-090>094-221000-
   SOUTHWEST IOWA

CITY           SKY/WX    TMP DP  RH WIND       PRES   REMARKS
ATLANTIC *     CLOUDY    52  43  71 SE6       30.13F
AUDUBON *      CLEAR     48  39  71 S8        30.14F
CLARINDA *     CLOUDY    54  45  71 VRB6      30.15S
COUNCIL BLFS * CLOUDY    54  46  76 SE14G21   30.09S
CRESTON *      CLOUDY    46  41  81 SE9       30.17R
HARLAN  *      MOCLDY    54  45  71 SE9       30.15S
LAMONI         CLEAR     48  40  73 SE7       30.18R
RED OAK *      CLOUDY    54  45  71 SE9       30.13S
SHENANDOAH *   CLOUDY    55  45  67 SE13G18   30.12S
$$

IAZ047>049-059>061-072>074-084-221000-
   CENTRAL IOWA

CITY           SKY/WX    TMP DP  RH WIND       PRES   REMARKS
AMES           CLEAR     42  37  82 SE7       30.20S
ANKENY *       CLEAR     43  39  87 SE7       30.20S
CHARITON *     CLEAR     45  39  81 SE9G16    30.20R
DES MOINES     CLEAR     47  38  71 SE9       30.20S
GRINNELL*      CLEAR     39  37  93 E8        30.23S WCI  34
KNOXVILLE *    CLEAR     43  37  81 SE9       30.20S
MARSHALLTOWN   CLEAR     42  38  85 SE15      30.22S
PELLA *        CLEAR     43  37  81 SE9       30.23S
PERRY *          N/A     45  41  87 SE7       30.18S
$$

IAZ004>006-015-016-023>025-035-036-221000-
   NORTH CENTRAL IOWA

CITY           SKY/WX    TMP DP  RH WIND       PRES   REMARKS
ALGONA *       CLEAR     43  37  81 SE12G17   30.17R
CLARION *      CLEAR     41  39  93 SE15G21   30.18S
ESTHERVILLE    CLEAR     43  38  82 SE18      30.12F
FORT DODGE *   CLEAR     45  36  70 SE9       30.18R
MASON CITY     CLEAR     39  37  92 SE12      30.22  WCI  32
FOREST CITY *  CLEAR     41  37  87 SE10      30.19S
IOWA FALLS *     N/A     39  37  93 SE8       30.22R WCI  34
$$

IAZ007>011-017>019-026>030-037>042-050>054-066-221000-
   NORTHEAST IOWA

CITY           SKY/WX    TMP DP  RH WIND       PRES   REMARKS
CEDAR RAPIDS   CLEAR     37  36  96 E6        30.26S WCI  32
CHARLES CITY * CLEAR     39  36  87 SE9       30.24S WCI  33
CLINTON *      CLEAR     34  28  80 CALM      30.32R
DECORAH *      CLEAR     37  36  93 SE7G13    30.25S WCI  32
DUBUQUE        CLEAR     37  35  92 SE8       30.29R WCI  31
MONTICELLO *   CLEAR     39  37  93 SE7       30.28R WCI  34
OELWEIN *      CLEAR     37  36  93 SE10      30.27R WCI  30
WATERLOO       CLEAR     39  36  89 SE8       30.24S WCI  33
$$

IAZ064-065-067-068-078-221000-
   EAST CENTRAL IOWA

CITY           SKY/WX    TMP DP  RH WIND       PRES   REMARKS
DAVENPORT      CLEAR     36  32  85 E5        30.29R WCI  32
IOWA CITY      CLEAR     39  36  89 E6        30.29R WCI  35
MT. PLEASANT * CLEAR     37  37 100 E3        30.26S
MUSCATINE *    CLEAR     37  36  93 CALM      30.28S
QUAD CITIES    CLEAR     32  30  92 E3        30.29R
$$

IAZ062-063-075>077-085>089-095>099-221000-
   SOUTHEAST IOWA

CITY           SKY/WX    TMP DP  RH WIND       PRES   REMARKS
BURLINGTON     CLEAR     41  38  89 E5        30.26S
FAIRFIELD *      N/A     37  36  93 CALM      30.26R
FORT MADISON * CLEAR     45  41  87 E5        30.27R
KEOKUK *       CLEAR     43  39  87 E8        30.25S
OSKALOOSA *      N/A     39  37  93 SE8       30.24S WCI  34
CENTERVILLE *  CLEAR     41  39  93 E7        30.22F
WASHINGTON *   CLEAR     37  37 100 E5        30.27R WCI  34
$$

ABBREVIATIONS USED IN REMARKS
   TC - TEMPERATURES IN CELSIUS
  WCI - WIND CHILL INDEX
   HX - HEAT INDEX
  VSB - VISIBILITY
$$





U.S. Dept. of Commerce
NOAA National Weather Service
1325 East West Highway
Silver Spring, MD 20910
E-mail: w-nws.webmaster@noaa.gov
Page last modified: May 16, 2007
NATIONAL WEATHER SERVICE: for Safety, for Work, for Fun - FOR LIFE